User: anonymous   Login
Location: Hodgeman County Ambulance
(38.0844°N, 99.8949°W)
Time: 03:42:05
(UTC+00:00)
Language:

PSLV R/B - Orbit

View from above orbital plane
View from above orbital plane
View from above satellite
View from above satellite

Ground track
Ground track

The orbit data is extracted from the following two-line orbital elements,

1 36800U 10035F   21015.56186521 -.00000033  00000-0  28346-5 0  9994
2 36800  98.1608 207.6513 0021694 342.0145  18.0304 14.94838964572316
Epoch (UTC): 15 January 2021 13:29:05
Eccentricity: 0.0021694
inclination: 98.1608°
perigee height: 568 km
apogee height: 598 km
right ascension of ascending node: 207.6513°
argument of perigee: 342.0145°
revolutions per day: 14.94838964
mean anomaly at epoch: 18.0304°
orbit number at epoch: 57231

The dashed part of the orbit path shows where the satellite is in the earth's shadow,  

DLR